Time,TemperatureF,DewpointF,PressureIn,WindDirection,WindDirectionDegrees,WindSpeedMPH,WindSpeedGustMPH,Humidity,HourlyPrecipIn,Conditions,Clouds,dailyrainin,SoftwareType,DateUTC
2013-05-13 00:01:00,46.8,31.5,29.97,NNW,339,7.0,7.0,55,0.00,,,0.02,Wunderground v.1.15,2013-05-13 04:01:00,
2013-05-13 00:02:00,46.8,31.5,29.97,NNW,333,7.0,7.0,55,0.00,,,0.02,Wunderground v.1.15,2013-05-13 04:02:00,
2013-05-13 00:03:00,46.8,31.5,29.97,NNW,337,7.0,9.0,55,0.00,,,0.02,Wunderground v.1.15,2013-05-13 04:03:00,
2013-05-13 00:05:00,46.8,31.0,29.97,NNW,336,7.0,9.0,54,0.00,,,0.02,Wunderground v.1.15,2013-05-13 04:05:00,
2013-05-13 00:10:00,46.8,31.5,29.97,NNW,327,7.0,7.0,55,0.00,,,0.02,Wunderground v.1.15,2013-05-13 04:10:00,
2013-05-13 00:11:00,46.7,31.4,29.97,NNW,335,7.0,8.0,55,0.00,,,0.02,Wunderground v.1.15,2013-05-13 04:11:00,
2013-05-13 00:17:00,46.5,31.2,29.97,NNW,329,7.0,8.0,55,0.00,,,0.02,Wunderground v.1.15,2013-05-13 04:17:00,
2013-05-13 00:22:00,46.4,31.1,29.98,NNW,332,7.0,8.0,55,0.00,,,0.02,Wunderground v.1.15,2013-05-13 04:22:00,
2013-05-13 00:27:00,46.5,30.7,29.97,NNW,336,7.0,8.0,54,0.00,,,0.02,Wunderground v.1.15,2013-05-13 04:27:00,
2013-05-13 00:32:00,46.4,31.1,29.98,NNW,339,7.0,8.0,55,0.00,,,0.02,Wunderground v.1.15,2013-05-13 04:32:00,
2013-05-13 00:38:00,46.3,31.0,29.98,NNW,328,7.0,10.0,55,0.00,,,0.00,Wunderground v.1.15,2013-05-13 04:38:00,
2013-05-13 00:44:00,46.3,31.4,29.98,NNW,330,7.0,9.0,56,0.00,,,0.00,Wunderground v.1.15,2013-05-13 04:44:00,
2013-05-13 00:51:00,46.0,31.6,29.98,NW,323,6.0,6.0,57,0.00,,,0.00,Wunderground v.1.15,2013-05-13 04:51:00,
2013-05-13 00:56:00,45.7,31.3,29.98,NW,323,5.0,6.0,57,0.00,,,0.00,Wunderground v.1.15,2013-05-13 04:56:00,
2013-05-13 01:02:00,45.4,31.5,29.98,NW,325,4.0,4.0,58,0.00,,,0.00,Wunderground v.1.15,2013-05-13 05:02:00,
2013-05-13 01:07:00,45.2,31.3,29.98,NW,319,4.0,4.0,58,0.00,,,0.00,Wunderground v.1.15,2013-05-13 05:07:00,
2013-05-13 01:13:00,45.1,32.0,29.98,NW,319,4.0,4.0,60,0.00,,,0.00,Wunderground v.1.15,2013-05-13 05:13:00,
2013-05-13 01:19:00,44.9,31.8,29.98,NW,319,3.0,4.0,60,0.00,,,0.00,Wunderground v.1.15,2013-05-13 05:19:00,
2013-05-13 01:24:00,44.7,32.1,29.98,NW,317,4.0,7.0,61,0.00,,,0.00,Wunderground v.1.15,2013-05-13 05:24:00,
2013-05-13 01:30:00,44.7,32.1,29.98,NW,309,4.0,4.0,61,0.00,,,0.00,Wunderground v.1.15,2013-05-13 05:30:00,
2013-05-13 01:36:00,44.7,31.2,29.98,NW,323,5.0,7.0,59,0.00,,,0.00,Wunderground v.1.15,2013-05-13 05:36:00,
2013-05-13 01:42:00,44.7,31.7,29.98,NNW,329,6.0,7.0,60,0.00,,,0.00,Wunderground v.1.15,2013-05-13 05:42:00,
2013-05-13 01:48:00,44.8,30.9,29.97,NW,319,6.0,7.0,58,0.00,,,0.00,Wunderground v.1.15,2013-05-13 05:48:00,
2013-05-13 01:53:00,44.9,31.0,29.97,NNW,333,6.0,7.0,58,0.00,,,0.00,Wunderground v.1.15,2013-05-13 05:53:00,
2013-05-13 01:59:00,45.0,31.1,29.97,NNW,330,6.0,8.0,58,0.00,,,0.00,Wunderground v.1.15,2013-05-13 05:59:00,
2013-05-13 02:04:00,45.0,31.5,29.97,NNW,347,6.0,9.0,59,0.00,,,0.00,Wunderground v.1.15,2013-05-13 06:04:00,
2013-05-13 02:09:00,44.9,31.0,29.97,NW,324,6.0,9.0,58,0.00,,,0.00,Wunderground v.1.15,2013-05-13 06:09:00,
2013-05-13 02:15:00,44.7,31.2,29.97,NNW,327,5.0,6.0,59,0.00,,,0.00,Wunderground v.1.15,2013-05-13 06:15:00,
2013-05-13 02:20:00,44.6,31.6,29.97,NW,325,5.0,5.0,60,0.00,,,0.00,Wunderground v.1.15,2013-05-13 06:20:00,
2013-05-13 02:25:00,44.4,31.4,29.97,NW,326,5.0,6.0,60,0.00,,,0.00,Wunderground v.1.15,2013-05-13 06:25:00,
2013-05-13 02:31:00,44.3,30.9,29.96,NW,325,5.0,5.0,59,0.00,,,0.00,Wunderground v.1.15,2013-05-13 06:31:00,
2013-05-13 02:37:00,44.4,31.0,29.97,NW,317,5.0,6.0,59,0.00,,,0.00,Wunderground v.1.15,2013-05-13 06:37:00,
2013-05-13 02:42:00,44.5,31.1,29.96,NW,322,5.0,5.0,59,0.00,,,0.00,Wunderground v.1.15,2013-05-13 06:42:00,
2013-05-13 02:47:00,44.5,31.1,29.96,NNW,332,5.0,6.0,59,0.00,,,0.00,Wunderground v.1.15,2013-05-13 06:47:00,
2013-05-13 02:53:00,44.5,31.1,29.96,NW,323,5.0,7.0,59,0.00,,,0.00,Wunderground v.1.15,2013-05-13 06:53:00,
2013-05-13 02:59:00,44.4,31.8,29.97,NW,318,5.0,7.0,61,0.00,,,0.00,Wunderground v.1.15,2013-05-13 06:59:00,
2013-05-13 03:04:00,44.2,31.2,29.97,NW,317,4.0,5.0,60,0.00,,,0.00,Wunderground v.1.15,2013-05-13 07:04:00,
2013-05-13 03:10:00,44.0,31.4,29.97,NW,312,3.0,3.0,61,0.00,,,0.00,Wunderground v.1.15,2013-05-13 07:10:00,
2013-05-13 03:15:00,43.9,31.3,29.97,NW,307,3.0,4.0,61,0.00,,,0.00,Wunderground v.1.15,2013-05-13 07:15:00,
2013-05-13 03:20:00,43.9,31.3,29.97,NW,318,4.0,5.0,61,0.00,,,0.00,Wunderground v.1.15,2013-05-13 07:20:00,
2013-05-13 03:26:00,43.8,31.6,29.97,NW,325,5.0,7.0,62,0.00,,,0.00,Wunderground v.1.15,2013-05-13 07:26:00,
2013-05-13 03:32:00,43.7,31.1,29.97,NW,319,5.0,6.0,61,0.00,,,0.00,Wunderground v.1.15,2013-05-13 07:32:00,
2013-05-13 03:37:00,43.6,31.0,29.97,NW,314,5.0,6.0,61,0.00,,,0.00,Wunderground v.1.15,2013-05-13 07:37:00,
2013-05-13 03:42:00,43.4,31.6,29.97,NW,315,4.0,5.0,63,0.00,,,0.00,Wunderground v.1.15,2013-05-13 07:42:00,
2013-05-13 03:48:00,43.3,31.5,29.97,NW,318,4.0,5.0,63,0.00,,,0.00,Wunderground v.1.15,2013-05-13 07:48:00,
2013-05-13 03:54:00,43.2,31.8,29.97,NW,317,4.0,4.0,64,0.00,,,0.00,Wunderground v.1.15,2013-05-13 07:54:00,
2013-05-13 04:00:00,43.1,32.1,29.97,NW,316,4.0,5.0,65,0.00,,,0.00,Wunderground v.1.15,2013-05-13 08:00:00,
2013-05-13 04:06:00,43.1,31.7,29.98,NW,324,5.0,6.0,64,0.00,,,0.00,Wunderground v.1.15,2013-05-13 08:06:00,
2013-05-13 04:12:00,43.1,32.1,29.98,NW,317,5.0,5.0,65,0.00,,,0.00,Wunderground v.1.15,2013-05-13 08:12:00,
2013-05-13 04:17:00,43.0,32.0,29.98,NW,317,4.0,5.0,65,0.00,,,0.00,Wunderground v.1.15,2013-05-13 08:17:00,
2013-05-13 04:23:00,43.0,31.6,29.98,NW,323,4.0,6.0,64,0.00,,,0.00,Wunderground v.1.15,2013-05-13 08:23:00,
2013-05-13 04:28:00,43.2,31.4,29.98,NW,326,4.0,6.0,63,0.00,,,0.00,Wunderground v.1.15,2013-05-13 08:28:00,
2013-05-13 04:34:00,43.3,31.5,29.98,NNW,346,4.0,5.0,63,0.00,,,0.00,Wunderground v.1.15,2013-05-13 08:34:00,
2013-05-13 04:40:00,43.3,31.5,29.98,NNW,333,4.0,4.0,63,0.00,,,0.00,Wunderground v.1.15,2013-05-13 08:40:00,
2013-05-13 04:46:00,43.3,31.5,29.98,NNW,340,4.0,6.0,63,0.00,,,0.00,Wunderground v.1.15,2013-05-13 08:46:00,
2013-05-13 04:52:00,43.4,31.6,29.98,NNW,327,4.0,6.0,63,0.00,,,0.00,Wunderground v.1.15,2013-05-13 08:52:00,
2013-05-13 04:57:00,43.3,32.3,29.98,NNW,338,4.0,6.0,65,0.00,,,0.00,Wunderground v.1.15,2013-05-13 08:57:00,
2013-05-13 05:03:00,43.0,32.0,29.98,NNW,335,4.0,5.0,65,0.00,,,0.00,Wunderground v.1.15,2013-05-13 09:03:00,
2013-05-13 05:09:00,42.9,32.3,29.99,NNW,330,5.0,7.0,66,0.00,,,0.00,Wunderground v.1.15,2013-05-13 09:09:00,
2013-05-13 05:14:00,42.9,32.3,29.99,NW,306,4.0,5.0,66,0.00,,,0.00,Wunderground v.1.15,2013-05-13 09:14:00,
2013-05-13 05:20:00,42.9,32.3,29.99,NW,306,3.0,3.0,66,0.00,,,0.00,Wunderground v.1.15,2013-05-13 09:20:00,
2013-05-13 05:25:00,42.9,31.9,29.99,NW,317,2.0,5.0,65,0.00,,,0.00,Wunderground v.1.15,2013-05-13 09:25:00,
2013-05-13 05:31:00,43.0,32.4,29.99,NW,323,3.0,4.0,66,0.00,,,0.00,Wunderground v.1.15,2013-05-13 09:31:00,
2013-05-13 05:37:00,43.0,32.0,29.99,NNW,338,4.0,6.0,65,0.00,,,0.00,Wunderground v.1.15,2013-05-13 09:37:00,
2013-05-13 05:42:00,43.0,32.0,29.99,North,5,4.0,5.0,65,0.00,,,0.00,Wunderground v.1.15,2013-05-13 09:42:00,
2013-05-13 05:47:00,43.0,32.0,29.99,NNW,347,4.0,5.0,65,0.00,,,0.00,Wunderground v.1.15,2013-05-13 09:47:00,
2013-05-13 05:53:00,42.9,31.9,30.00,NW,326,4.0,6.0,65,0.00,,,0.00,Wunderground v.1.15,2013-05-13 09:53:00,
2013-05-13 05:59:00,42.9,32.3,30.00,NNW,346,4.0,6.0,66,0.00,,,0.00,Wunderground v.1.15,2013-05-13 09:59:00,
2013-05-13 06:05:00,42.9,31.9,30.01,North,5,3.0,4.0,65,0.00,,,0.00,Wunderground v.1.15,2013-05-13 10:05:00,
2013-05-13 06:10:00,42.8,32.2,30.01,North,5,1.0,1.0,66,0.00,,,0.00,Wunderground v.1.15,2013-05-13 10:10:00,
2013-05-13 06:16:00,42.8,32.2,30.01,North,5,0.0,2.0,66,0.00,,,0.00,Wunderground v.1.15,2013-05-13 10:16:00,
2013-05-13 06:22:00,42.8,32.2,30.01,NNE,24,2.0,4.0,66,0.00,,,0.00,Wunderground v.1.15,2013-05-13 10:22:00,
2013-05-13 06:27:00,42.6,32.4,30.01,NNE,15,2.0,4.0,67,0.00,,,0.00,Wunderground v.1.15,2013-05-13 10:27:00,
2013-05-13 06:32:00,42.7,32.5,30.01,NNE,26,3.0,4.0,67,0.00,,,0.00,Wunderground v.1.15,2013-05-13 10:32:00,
2013-05-13 06:37:00,42.7,32.5,30.01,NNE,21,3.0,4.0,67,0.00,,,0.00,Wunderground v.1.15,2013-05-13 10:37:00,
2013-05-13 06:43:00,42.9,33.1,30.01,NNE,21,2.0,3.0,68,0.00,,,0.00,Wunderground v.1.15,2013-05-13 10:43:00,
2013-05-13 06:48:00,43.0,33.2,30.01,NNE,27,2.0,4.0,68,0.00,,,0.00,Wunderground v.1.15,2013-05-13 10:48:00,
2013-05-13 06:55:00,43.0,33.2,30.01,NNE,26,3.0,3.0,68,0.00,,,0.00,Wunderground v.1.15,2013-05-13 10:55:00,
2013-05-13 07:00:00,43.1,33.3,30.02,NNE,16,2.0,2.0,68,0.00,,,0.00,Wunderground v.1.15,2013-05-13 11:00:00,
2013-05-13 07:05:00,43.2,33.0,30.02,NNE,19,1.0,2.0,67,0.00,,,0.00,Wunderground v.1.15,2013-05-13 11:05:00,
2013-05-13 07:11:00,43.3,33.1,30.02,NNE,21,1.0,3.0,67,0.00,,,0.00,Wunderground v.1.15,2013-05-13 11:11:00,
2013-05-13 07:17:00,43.4,33.2,30.03,NNE,25,2.0,4.0,67,0.00,,,0.00,Wunderground v.1.15,2013-05-13 11:17:00,
2013-05-13 07:22:00,43.5,33.3,30.03,NNE,21,3.0,3.0,67,0.00,,,0.00,Wunderground v.1.15,2013-05-13 11:22:00,
2013-05-13 07:27:00,43.7,34.2,30.03,NNE,27,2.0,4.0,69,0.00,,,0.00,Wunderground v.1.15,2013-05-13 11:27:00,
2013-05-13 07:33:00,43.9,34.0,30.03,NNE,18,3.0,5.0,68,0.00,,,0.00,Wunderground v.1.15,2013-05-13 11:33:00,
2013-05-13 07:38:00,44.2,33.9,30.03,North,5,4.0,5.0,67,0.00,,,0.00,Wunderground v.1.15,2013-05-13 11:38:00,
2013-05-13 07:44:00,44.3,34.0,30.03,North,11,5.0,8.0,67,0.00,,,0.00,Wunderground v.1.15,2013-05-13 11:44:00,
2013-05-13 07:51:00,44.4,34.5,30.04,NNW,344,5.0,5.0,68,0.00,,,0.00,Wunderground v.1.15,2013-05-13 11:51:00,
2013-05-13 07:56:00,44.5,33.8,30.04,North,5,5.0,8.0,66,0.00,,,0.00,Wunderground v.1.15,2013-05-13 11:56:00,
2013-05-13 08:02:00,44.5,34.2,30.04,NNW,336,6.0,9.0,67,0.00,,,0.00,Wunderground v.1.15,2013-05-13 12:02:00,
2013-05-13 08:07:00,44.7,34.0,30.05,North,5,6.0,9.0,66,0.00,,,0.00,Wunderground v.1.15,2013-05-13 12:07:00,
2013-05-13 08:13:00,45.0,33.9,30.05,North,9,5.0,6.0,65,0.00,,,0.00,Wunderground v.1.15,2013-05-13 12:13:00,
2013-05-13 08:19:00,45.5,35.2,30.05,North,5,4.0,6.0,67,0.00,,,0.00,Wunderground v.1.15,2013-05-13 12:19:00,
2013-05-13 08:24:00,45.7,34.6,30.05,North,9,4.0,5.0,65,0.00,,,0.00,Wunderground v.1.15,2013-05-13 12:24:00,
2013-05-13 08:30:00,45.7,35.0,30.05,North,360,6.0,6.0,66,0.00,,,0.00,Wunderground v.1.15,2013-05-13 12:30:00,
2013-05-13 08:36:00,45.8,34.3,30.05,NNE,27,6.0,8.0,64,0.00,,,0.00,Wunderground v.1.15,2013-05-13 12:36:00,
2013-05-13 08:41:00,46.0,34.5,30.05,NNE,15,5.0,8.0,64,0.00,,,0.00,Wunderground v.1.15,2013-05-13 12:41:00,
2013-05-13 08:47:00,46.0,34.9,30.05,NNW,348,5.0,8.0,65,0.00,,,0.00,Wunderground v.1.15,2013-05-13 12:47:00,
2013-05-13 08:52:00,45.9,34.4,30.05,North,9,5.0,6.0,64,0.00,,,0.00,Wunderground v.1.15,2013-05-13 12:52:00,
2013-05-13 08:58:00,45.7,34.2,30.06,North,5,5.0,7.0,64,0.00,,,0.00,Wunderground v.1.15,2013-05-13 12:58:00,
2013-05-13 09:03:00,45.8,34.7,30.06,NNE,21,5.0,9.0,65,0.00,,,0.00,Wunderground v.1.15,2013-05-13 13:03:00,
2013-05-13 09:09:00,46.1,33.8,30.06,NNE,28,6.0,9.0,62,0.00,,,0.00,Wunderground v.1.15,2013-05-13 13:09:00,
2013-05-13 09:14:00,46.9,35.0,30.06,NNW,342,5.0,6.0,63,0.00,,,0.00,Wunderground v.1.15,2013-05-13 13:14:00,
2013-05-13 09:19:00,47.3,34.9,30.06,North,11,5.0,6.0,62,0.00,,,0.00,Wunderground v.1.15,2013-05-13 13:19:00,
2013-05-13 09:24:00,47.3,35.3,30.05,NNE,18,5.0,11.0,63,0.00,,,0.00,Wunderground v.1.15,2013-05-13 13:24:00,
2013-05-13 09:29:00,47.0,34.2,30.05,North,11,5.0,11.0,61,0.00,,,0.00,Wunderground v.1.15,2013-05-13 13:29:00,
2013-05-13 09:34:00,46.9,35.4,30.05,North,355,5.0,7.0,64,0.00,,,0.00,Wunderground v.1.15,2013-05-13 13:34:00,
2013-05-13 09:40:00,46.5,35.0,30.06,North,5,6.0,6.0,64,0.00,,,0.00,Wunderground v.1.15,2013-05-13 13:40:00,
2013-05-13 09:46:00,46.3,33.6,30.06,NW,319,7.0,10.0,61,0.00,,,0.00,Wunderground v.1.15,2013-05-13 13:46:00,
2013-05-13 09:51:00,46.6,34.3,30.06,NW,312,6.0,7.0,62,0.00,,,0.00,Wunderground v.1.15,2013-05-13 13:51:00,
2013-05-13 09:57:00,46.8,34.5,30.05,NNW,328,4.0,7.0,62,0.00,,,0.00,Wunderground v.1.15,2013-05-13 13:57:00,
2013-05-13 10:02:00,46.7,33.5,30.06,North,350,5.0,8.0,60,0.00,,,0.00,Wunderground v.1.15,2013-05-13 14:02:00,
2013-05-13 10:07:00,46.7,34.4,30.06,NE,36,5.0,8.0,62,0.00,,,0.00,Wunderground v.1.15,2013-05-13 14:07:00,
2013-05-13 10:13:00,47.2,34.4,30.06,NNE,19,6.0,8.0,61,0.00,,,0.00,Wunderground v.1.15,2013-05-13 14:13:00,
2013-05-13 10:19:00,47.7,34.1,30.06,NE,42,6.0,9.0,59,0.00,,,0.00,Wunderground v.1.15,2013-05-13 14:19:00,
2013-05-13 10:24:00,47.9,33.4,30.06,NW,324,5.0,7.0,57,0.00,,,0.00,Wunderground v.1.15,2013-05-13 14:24:00,
2013-05-13 10:30:00,47.6,34.0,30.06,NW,317,5.0,9.0,59,0.00,,,0.00,Wunderground v.1.15,2013-05-13 14:30:00,
2013-05-13 10:36:00,47.3,34.1,30.06,NNE,29,6.0,9.0,60,0.00,,,0.00,Wunderground v.1.15,2013-05-13 14:36:00,
2013-05-13 10:41:00,47.2,32.7,30.06,North,360,6.0,6.0,57,0.00,,,0.00,Wunderground v.1.15,2013-05-13 14:41:00,
2013-05-13 10:47:00,47.3,34.1,30.06,NNW,346,4.0,7.0,60,0.00,,,0.00,Wunderground v.1.15,2013-05-13 14:47:00,
2013-05-13 10:52:00,47.1,33.1,30.06,NW,308,6.0,9.0,58,0.00,,,0.00,Wunderground v.1.15,2013-05-13 14:52:00,
2013-05-13 10:58:00,46.7,32.7,30.06,NNE,19,7.0,9.0,58,0.00,,,0.00,Wunderground v.1.15,2013-05-13 14:58:00,
2013-05-13 11:03:00,46.4,32.4,30.06,North,5,7.0,10.0,58,0.00,,,0.00,Wunderground v.1.15,2013-05-13 15:03:00,
2013-05-13 11:09:00,45.9,32.4,30.07,North,5,6.0,10.0,59,0.00,,,0.00,Wunderground v.1.15,2013-05-13 15:09:00,
2013-05-13 11:14:00,45.8,33.1,30.07,North,11,6.0,8.0,61,0.00,,,0.00,Wunderground v.1.15,2013-05-13 15:14:00,
2013-05-13 11:20:00,45.9,31.9,30.07,NNE,25,5.0,5.0,58,0.00,,,0.00,Wunderground v.1.15,2013-05-13 15:20:00,
2013-05-13 11:26:00,46.1,32.6,30.07,NNE,32,4.0,6.0,59,0.00,,,0.00,Wunderground v.1.15,2013-05-13 15:26:00,
2013-05-13 11:32:00,46.4,32.0,30.07,NW,323,5.0,8.0,57,0.00,,,0.00,Wunderground v.1.15,2013-05-13 15:32:00,
2013-05-13 11:37:00,46.6,33.0,30.07,North,349,5.0,8.0,59,0.00,,,0.00,Wunderground v.1.15,2013-05-13 15:37:00,
2013-05-13 11:42:00,46.8,34.0,30.07,NNW,327,4.0,11.0,61,0.00,,,0.00,Wunderground v.1.15,2013-05-13 15:42:00,
2013-05-13 11:48:00,46.8,32.8,30.07,NW,308,6.0,11.0,58,0.00,,,0.00,Wunderground v.1.15,2013-05-13 15:48:00,
2013-05-13 11:53:00,46.8,34.0,30.07,NNE,18,7.0,8.0,61,0.00,,,0.00,Wunderground v.1.15,2013-05-13 15:53:00,
2013-05-13 11:59:00,46.7,34.0,30.07,NNW,345,7.0,8.0,61,0.00,,,0.00,Wunderground v.1.15,2013-05-13 15:59:00,
2013-05-13 12:04:00,47.1,33.1,30.07,NW,323,5.0,6.0,58,0.00,,,0.00,Wunderground v.1.15,2013-05-13 16:04:00,
2013-05-13 12:10:00,48.5,35.2,30.07,North,5,5.0,9.0,60,0.00,,,0.00,Wunderground v.1.15,2013-05-13 16:10:00,
2013-05-13 12:16:00,47.9,33.4,30.07,North,355,7.0,12.0,57,0.00,,,0.00,Wunderground v.1.15,2013-05-13 16:16:00,
2013-05-13 12:22:00,47.4,32.5,30.07,NNW,334,7.0,10.0,56,0.00,,,0.00,Wunderground v.1.15,2013-05-13 16:22:00,
2013-05-13 12:28:00,47.2,34.0,30.07,NNW,329,8.0,14.0,60,0.00,,,0.00,Wunderground v.1.15,2013-05-13 16:28:00,
2013-05-13 12:35:00,47.0,33.4,30.07,NNE,22,10.0,10.0,59,0.00,,,0.00,Wunderground v.1.15,2013-05-13 16:35:00,
2013-05-13 12:40:00,47.9,32.9,30.07,NE,38,8.0,8.0,56,0.00,,,0.00,Wunderground v.1.15,2013-05-13 16:40:00,
2013-05-13 12:46:00,49.0,34.9,30.06,North,349,7.0,14.0,58,0.00,,,0.00,Wunderground v.1.15,2013-05-13 16:46:00,
2013-05-13 12:52:00,49.2,34.6,30.06,North,5,8.0,9.0,57,0.00,,,0.00,Wunderground v.1.15,2013-05-13 16:52:00,
2013-05-13 12:57:00,49.7,34.2,30.06,NNE,19,8.0,11.0,55,0.00,,,0.00,Wunderground v.1.15,2013-05-13 16:57:00,
2013-05-13 13:03:00,49.5,34.0,30.06,NW,325,10.0,16.0,55,0.00,,,0.00,Wunderground v.1.15,2013-05-13 17:03:00,
2013-05-13 13:08:00,49.4,33.0,30.06,NNW,338,11.0,16.0,53,0.00,,,0.00,Wunderground v.1.15,2013-05-13 17:08:00,
2013-05-13 13:13:00,49.3,33.3,30.06,NNW,344,11.0,14.0,54,0.00,,,0.00,Wunderground v.1.15,2013-05-13 17:13:00,
2013-05-13 13:19:00,49.1,34.5,30.06,NW,322,12.0,14.0,57,0.00,,,0.00,Wunderground v.1.15,2013-05-13 17:19:00,
2013-05-13 13:25:00,49.5,34.4,30.06,WNW,299,13.0,15.0,56,0.00,,,0.00,Wunderground v.1.15,2013-05-13 17:25:00,
2013-05-13 13:31:00,48.7,33.2,30.06,NW,316,13.0,16.0,55,0.00,,,0.00,Wunderground v.1.15,2013-05-13 17:31:00,
2013-05-13 13:37:00,48.7,32.8,30.06,NNE,28,10.0,16.0,54,0.00,,,0.00,Wunderground v.1.15,2013-05-13 17:37:00,
2013-05-13 13:42:00,49.3,32.9,30.06,NE,52,7.0,8.0,53,0.00,,,0.00,Wunderground v.1.15,2013-05-13 17:42:00,
2013-05-13 13:48:00,49.1,32.7,30.06,NNE,24,7.0,11.0,53,0.00,,,0.00,Wunderground v.1.15,2013-05-13 17:48:00,
2013-05-13 13:53:00,48.7,31.8,30.06,NE,42,6.0,7.0,52,0.00,,,0.00,Wunderground v.1.15,2013-05-13 17:53:00,
2013-05-13 13:59:00,48.2,31.4,30.06,NNE,32,6.0,8.0,52,0.00,,,0.00,Wunderground v.1.15,2013-05-13 17:59:00,
2013-05-13 14:04:00,47.7,32.3,30.06,North,360,7.0,10.0,55,0.00,,,0.00,Wunderground v.1.15,2013-05-13 18:04:00,
2013-05-13 14:10:00,48.2,34.1,30.06,NNW,346,7.0,7.0,58,0.00,,,0.00,Wunderground v.1.15,2013-05-13 18:10:00,
2013-05-13 14:15:00,49.0,33.5,30.05,NE,42,4.0,7.0,55,0.00,,,0.00,Wunderground v.1.15,2013-05-13 18:15:00,
2013-05-13 14:21:00,49.2,32.8,30.05,North,349,4.0,8.0,53,0.00,,,0.00,Wunderground v.1.15,2013-05-13 18:21:00,
2013-05-13 14:26:00,49.0,31.2,30.05,NW,324,6.0,11.0,50,0.00,,,0.00,Wunderground v.1.15,2013-05-13 18:26:00,
2013-05-13 14:32:00,49.0,31.6,30.05,NNE,25,7.0,9.0,51,0.00,,,0.00,Wunderground v.1.15,2013-05-13 18:32:00,
2013-05-13 14:38:00,49.3,30.4,30.05,NE,48,6.0,9.0,48,0.00,,,0.00,Wunderground v.1.15,2013-05-13 18:38:00,
2013-05-13 14:43:00,49.4,32.0,30.05,NNE,14,6.0,9.0,51,0.00,,,0.00,Wunderground v.1.15,2013-05-13 18:43:00,
2013-05-13 14:49:00,50.3,32.8,30.04,NE,45,5.0,9.0,51,0.00,,,0.00,Wunderground v.1.15,2013-05-13 18:49:00,
2013-05-13 14:54:00,51.3,30.7,30.04,North,9,5.0,6.0,45,0.00,,,0.00,Wunderground v.1.15,2013-05-13 18:54:00,
2013-05-13 15:00:00,51.5,30.8,30.04,NNW,343,6.0,6.0,45,0.00,,,0.00,Wunderground v.1.15,2013-05-13 19:00:00,
2013-05-13 15:06:00,51.3,30.1,30.04,NNW,348,7.0,9.0,44,0.00,,,0.00,Wunderground v.1.15,2013-05-13 19:06:00,
2013-05-13 15:11:00,51.2,30.0,30.03,ENE,59,8.0,9.0,44,0.00,,,0.00,Wunderground v.1.15,2013-05-13 19:11:00,
2013-05-13 15:17:00,51.4,30.2,30.04,ENE,77,8.0,9.0,44,0.00,,,0.00,Wunderground v.1.15,2013-05-13 19:17:00,
2013-05-13 15:23:00,51.9,30.1,30.04,NNE,31,7.0,7.0,43,0.00,,,0.00,Wunderground v.1.15,2013-05-13 19:23:00,
2013-05-13 15:29:00,52.2,33.1,30.04,North,360,6.0,7.0,48,0.00,,,0.00,Wunderground v.1.15,2013-05-13 19:29:00,
2013-05-13 15:34:00,52.1,30.3,30.04,NNE,15,7.0,10.0,43,0.00,,,0.00,Wunderground v.1.15,2013-05-13 19:34:00,
2013-05-13 15:39:00,51.1,30.5,30.04,NNE,20,8.0,10.0,45,0.00,,,0.00,Wunderground v.1.15,2013-05-13 19:39:00,
2013-05-13 15:44:00,51.1,29.9,30.03,NE,45,7.0,9.0,44,0.00,,,0.00,Wunderground v.1.15,2013-05-13 19:44:00,
2013-05-13 15:50:00,51.9,28.3,30.03,NE,37,6.0,12.0,40,0.00,,,0.00,Wunderground v.1.15,2013-05-13 19:50:00,
2013-05-13 15:56:00,51.1,30.5,30.03,NNW,347,7.0,12.0,45,0.00,,,0.00,Wunderground v.1.15,2013-05-13 19:56:00,
2013-05-13 16:01:00,50.9,30.3,30.03,NNE,23,6.0,6.0,45,0.00,,,0.00,Wunderground v.1.15,2013-05-13 20:01:00,
2013-05-13 16:07:00,51.1,28.2,30.03,NNE,21,4.0,6.0,41,0.00,,,0.00,Wunderground v.1.15,2013-05-13 20:07:00,
2013-05-13 16:13:00,51.5,29.7,30.03,NNE,30,4.0,8.0,43,0.00,,,0.00,Wunderground v.1.15,2013-05-13 20:13:00,
2013-05-13 16:18:00,51.3,28.4,30.03,North,360,5.0,8.0,41,0.00,,,0.00,Wunderground v.1.15,2013-05-13 20:18:00,
2013-05-13 16:24:00,51.5,29.7,30.03,NNW,333,6.0,9.0,43,0.00,,,0.00,Wunderground v.1.15,2013-05-13 20:24:00,
2013-05-13 16:30:00,51.3,27.8,30.03,North,360,7.0,7.0,40,0.00,,,0.00,Wunderground v.1.15,2013-05-13 20:30:00,
2013-05-13 16:36:00,51.2,29.4,30.03,NNW,347,8.0,14.0,43,0.00,,,0.00,Wunderground v.1.15,2013-05-13 20:36:00,
2013-05-13 16:42:00,51.3,29.5,30.03,North,349,8.0,8.0,43,0.00,,,0.00,Wunderground v.1.15,2013-05-13 20:42:00,
2013-05-13 16:48:00,51.5,27.9,30.03,NNW,332,7.0,13.0,40,0.00,,,0.00,Wunderground v.1.15,2013-05-13 20:48:00,
2013-05-13 16:53:00,52.0,27.8,30.03,NE,47,6.0,7.0,39,0.00,,,0.00,Wunderground v.1.15,2013-05-13 20:53:00,
2013-05-13 16:59:00,51.8,29.4,30.03,NNW,344,7.0,9.0,42,0.00,,,0.00,Wunderground v.1.15,2013-05-13 20:59:00,
2013-05-13 17:04:00,51.4,27.9,30.03,NNE,23,7.0,7.0,40,0.00,,,0.00,Wunderground v.1.15,2013-05-13 21:04:00,
2013-05-13 17:10:00,51.5,30.8,30.03,North,11,6.0,6.0,45,0.00,,,0.00,Wunderground v.1.15,2013-05-13 21:10:00,
2013-05-13 17:16:00,52.0,28.4,30.03,NNE,17,7.0,11.0,40,0.00,,,0.00,Wunderground v.1.15,2013-05-13 21:16:00,
2013-05-13 17:21:00,52.1,27.9,30.03,ENE,62,7.0,11.0,39,0.00,,,0.00,Wunderground v.1.15,2013-05-13 21:21:00,
2013-05-13 17:27:00,52.1,27.9,30.03,NE,36,6.0,11.0,39,0.00,,,0.00,Wunderground v.1.15,2013-05-13 21:27:00,
2013-05-13 17:33:00,52.1,27.2,30.03,ENE,65,6.0,10.0,38,0.00,,,0.00,Wunderground v.1.15,2013-05-13 21:33:00,
2013-05-13 17:39:00,51.9,27.7,30.03,North,5,8.0,10.0,39,0.00,,,0.00,Wunderground v.1.15,2013-05-13 21:39:00,
2013-05-13 17:45:00,51.9,28.9,30.02,ENE,62,6.0,8.0,41,0.00,,,0.00,Wunderground v.1.15,2013-05-13 21:45:00,
2013-05-13 17:50:00,52.2,28.6,30.03,NE,51,5.0,6.0,40,0.00,,,0.00,Wunderground v.1.15,2013-05-13 21:50:00,
2013-05-13 17:56:00,52.4,27.5,30.03,NNE,14,7.0,9.0,38,0.00,,,0.00,Wunderground v.1.15,2013-05-13 21:56:00,
2013-05-13 18:01:00,51.7,27.5,30.02,NNE,29,7.0,7.0,39,0.00,,,0.00,Wunderground v.1.15,2013-05-13 22:01:00,
2013-05-13 18:07:00,50.8,27.3,30.03,NE,44,7.0,8.0,40,0.00,,,0.00,Wunderground v.1.15,2013-05-13 22:07:00,
2013-05-13 18:13:00,50.6,26.5,30.03,NNE,26,7.0,9.0,39,0.00,,,0.00,Wunderground v.1.15,2013-05-13 22:13:00,
2013-05-13 18:18:00,51.0,28.1,30.03,NNE,13,7.0,9.0,41,0.00,,,0.00,Wunderground v.1.15,2013-05-13 22:18:00,
2013-05-13 18:23:00,51.2,27.1,30.03,NNE,26,8.0,13.0,39,0.00,,,0.00,Wunderground v.1.15,2013-05-13 22:23:00,
2013-05-13 18:28:00,51.0,27.5,30.03,NE,36,7.0,13.0,40,0.00,,,0.00,Wunderground v.1.15,2013-05-13 22:28:00,
2013-05-13 18:34:00,50.6,28.9,30.03,North,11,6.0,8.0,43,0.00,,,0.00,Wunderground v.1.15,2013-05-13 22:34:00,
2013-05-13 18:40:00,50.2,28.0,30.03,NE,40,7.0,11.0,42,0.00,,,0.00,Wunderground v.1.15,2013-05-13 22:40:00,
2013-05-13 18:45:00,50.2,26.8,30.03,NNE,28,8.0,11.0,40,0.00,,,0.00,Wunderground v.1.15,2013-05-13 22:45:00,
2013-05-13 18:51:00,50.5,27.7,30.03,NE,41,7.0,7.0,41,0.00,,,0.00,Wunderground v.1.15,2013-05-13 22:51:00,
2013-05-13 18:56:00,50.8,27.9,30.03,North,5,7.0,7.0,41,0.00,,,0.00,Wunderground v.1.15,2013-05-13 22:56:00,
2013-05-13 19:02:00,51.0,28.1,30.03,NNE,19,6.0,9.0,41,0.00,,,0.00,Wunderground v.1.15,2013-05-13 23:02:00,
2013-05-13 19:07:00,50.9,28.0,30.03,North,360,6.0,9.0,41,0.00,,,0.00,Wunderground v.1.15,2013-05-13 23:07:00,
2013-05-13 19:12:00,50.8,27.3,30.03,North,355,6.0,8.0,40,0.00,,,0.00,Wunderground v.1.15,2013-05-13 23:12:00,
2013-05-13 19:18:00,50.5,27.0,30.04,North,5,7.0,11.0,40,0.00,,,0.00,Wunderground v.1.15,2013-05-13 23:18:00,
2013-05-13 19:23:00,50.5,28.2,30.04,NE,42,6.0,8.0,42,0.00,,,0.00,Wunderground v.1.15,2013-05-13 23:23:00,
2013-05-13 19:29:00,49.9,27.7,30.04,NNE,28,6.0,8.0,42,0.00,,,0.00,Wunderground v.1.15,2013-05-13 23:29:00,
2013-05-13 19:35:00,49.6,28.0,30.04,NNE,22,5.0,8.0,43,0.00,,,0.00,Wunderground v.1.15,2013-05-13 23:35:00,
2013-05-13 19:41:00,49.3,28.3,30.04,NNE,32,4.0,4.0,44,0.00,,,0.00,Wunderground v.1.15,2013-05-13 23:41:00,
2013-05-13 19:47:00,49.0,28.0,30.05,NE,40,3.0,6.0,44,0.00,,,0.00,Wunderground v.1.15,2013-05-13 23:47:00,
2013-05-13 19:52:00,48.7,27.7,30.05,NNE,32,3.0,4.0,44,0.00,,,0.00,Wunderground v.1.15,2013-05-13 23:52:00,
2013-05-13 19:58:00,48.6,28.7,30.05,NNE,15,3.0,4.0,46,0.00,,,0.00,Wunderground v.1.15,2013-05-13 23:58:00,
2013-05-13 20:04:00,48.3,28.5,30.05,NNE,23,3.0,6.0,46,0.00,,,0.00,Wunderground v.1.15,2013-05-14 00:04:00,
2013-05-13 20:10:00,47.9,28.6,30.05,NNE,24,3.0,6.0,47,0.00,,,0.00,Wunderground v.1.15,2013-05-14 00:10:00,
2013-05-13 20:16:00,47.7,28.4,30.05,NNE,32,3.0,7.0,47,0.00,,,0.00,Wunderground v.1.15,2013-05-14 00:16:00,
2013-05-13 20:21:00,47.4,28.7,30.06,NE,41,3.0,4.0,48,0.00,,,0.00,Wunderground v.1.15,2013-05-14 00:21:00,
2013-05-13 20:26:00,47.2,28.5,30.06,NE,41,3.0,4.0,48,0.00,,,0.00,Wunderground v.1.15,2013-05-14 00:26:00,
2013-05-13 20:31:00,47.0,28.3,30.06,NNE,22,2.0,2.0,48,0.00,,,0.00,Wunderground v.1.15,2013-05-14 00:31:00,
2013-05-13 20:37:00,46.7,28.5,30.07,NNE,22,2.0,3.0,49,0.00,,,0.00,Wunderground v.1.15,2013-05-14 00:37:00,
2013-05-13 20:43:00,46.4,28.8,30.07,NNE,29,2.0,4.0,50,0.00,,,0.00,Wunderground v.1.15,2013-05-14 00:43:00,
2013-05-13 20:48:00,46.2,28.6,30.07,NNE,29,2.0,4.0,50,0.00,,,0.00,Wunderground v.1.15,2013-05-14 00:48:00,
2013-05-13 20:53:00,46.1,29.0,30.07,NNE,19,2.0,2.0,51,0.00,,,0.00,Wunderground v.1.15,2013-05-14 00:53:00,
2013-05-13 20:58:00,45.9,29.2,30.07,NE,36,3.0,4.0,52,0.00,,,0.00,Wunderground v.1.15,2013-05-14 00:58:00,
2013-05-13 21:04:00,45.7,29.1,30.08,NNE,26,2.0,5.0,52,0.00,,,0.00,Wunderground v.1.15,2013-05-14 01:04:00,
2013-05-13 21:09:00,45.6,28.5,30.08,NNE,22,3.0,5.0,51,0.00,,,0.00,Wunderground v.1.15,2013-05-14 01:09:00,
2013-05-13 21:15:00,45.4,28.8,30.08,NNE,26,2.0,3.0,52,0.00,,,0.00,Wunderground v.1.15,2013-05-14 01:15:00,
2013-05-13 21:20:00,45.2,29.1,30.08,NNE,27,2.0,2.0,53,0.00,,,0.00,Wunderground v.1.15,2013-05-14 01:20:00,
2013-05-13 21:26:00,45.0,28.4,30.09,NNE,27,2.0,2.0,52,0.00,,,0.00,Wunderground v.1.15,2013-05-14 01:26:00,
2013-05-13 21:31:00,44.9,28.8,30.09,NNE,27,2.0,2.0,53,0.00,,,0.00,Wunderground v.1.15,2013-05-14 01:31:00,
2013-05-13 21:37:00,44.9,28.8,30.09,NNE,27,1.0,2.0,53,0.00,,,0.00,Wunderground v.1.15,2013-05-14 01:37:00,
2013-05-13 21:43:00,44.7,28.6,30.09,NNE,27,1.0,2.0,53,0.00,,,0.00,Wunderground v.1.15,2013-05-14 01:43:00,
2013-05-13 21:48:00,44.7,28.6,30.09,NNE,27,2.0,3.0,53,0.00,,,0.00,Wunderground v.1.15,2013-05-14 01:48:00,
2013-05-13 21:54:00,44.5,28.9,30.10,NNE,27,2.0,3.0,54,0.00,,,0.00,Wunderground v.1.15,2013-05-14 01:54:00,
2013-05-13 21:59:00,44.4,28.8,30.10,NNE,27,2.0,3.0,54,0.00,,,0.00,Wunderground v.1.15,2013-05-14 01:59:00,
2013-05-13 22:05:00,44.3,28.7,30.10,NNE,28,2.0,3.0,54,0.00,,,0.00,Wunderground v.1.15,2013-05-14 02:05:00,
2013-05-13 22:11:00,44.3,28.7,30.10,NNE,28,2.0,2.0,54,0.00,,,0.00,Wunderground v.1.15,2013-05-14 02:11:00,
2013-05-13 22:16:00,44.2,28.6,30.10,NNE,28,2.0,3.0,54,0.00,,,0.00,Wunderground v.1.15,2013-05-14 02:16:00,
2013-05-13 22:22:00,44.1,28.9,30.10,NNE,28,2.0,2.0,55,0.00,,,0.00,Wunderground v.1.15,2013-05-14 02:22:00,
2013-05-13 22:27:00,44.1,28.9,30.10,NNE,16,2.0,4.0,55,0.00,,,0.00,Wunderground v.1.15,2013-05-14 02:27:00,
2013-05-13 22:32:00,44.2,28.6,30.10,North,5,3.0,4.0,54,0.00,,,0.00,Wunderground v.1.15,2013-05-14 02:32:00,
2013-05-13 22:38:00,44.2,28.6,30.10,NNE,13,3.0,4.0,54,0.00,,,0.00,Wunderground v.1.15,2013-05-14 02:38:00,
2013-05-13 22:43:00,44.2,29.0,30.11,NNE,17,3.0,4.0,55,0.00,,,0.00,Wunderground v.1.15,2013-05-14 02:43:00,
2013-05-13 22:49:00,44.2,28.6,30.11,NNE,15,3.0,5.0,54,0.00,,,0.00,Wunderground v.1.15,2013-05-14 02:49:00,
2013-05-13 22:54:00,44.1,28.5,30.11,NNE,19,3.0,5.0,54,0.00,,,0.00,Wunderground v.1.15,2013-05-14 02:54:00,
2013-05-13 22:59:00,44.1,28.9,30.11,NNE,15,3.0,5.0,55,0.00,,,0.00,Wunderground v.1.15,2013-05-14 02:59:00,
2013-05-13 23:04:00,44.1,28.0,30.11,NNE,33,3.0,4.0,53,0.00,,,0.00,Wunderground v.1.15,2013-05-14 03:04:00,
2013-05-13 23:10:00,44.0,28.9,30.11,North,9,3.0,3.0,55,0.00,,,0.00,Wunderground v.1.15,2013-05-14 03:10:00,
2013-05-13 23:15:00,43.9,28.8,30.11,NNW,342,3.0,5.0,55,0.00,,,0.00,Wunderground v.1.15,2013-05-14 03:15:00,
2013-05-13 23:21:00,43.8,28.7,30.11,NNW,345,4.0,4.0,55,0.00,,,0.00,Wunderground v.1.15,2013-05-14 03:21:00,
2013-05-13 23:27:00,43.7,29.0,30.12,North,351,3.0,5.0,56,0.00,,,0.00,Wunderground v.1.15,2013-05-14 03:27:00,
2013-05-13 23:33:00,43.6,28.9,30.11,North,355,3.0,5.0,56,0.00,,,0.00,Wunderground v.1.15,2013-05-14 03:33:00,
2013-05-13 23:38:00,43.5,28.8,30.12,North,5,3.0,5.0,56,0.00,,,0.00,Wunderground v.1.15,2013-05-14 03:38:00,
2013-05-13 23:43:00,43.3,28.6,30.12,NNE,13,3.0,7.0,56,0.00,,,0.00,Wunderground v.1.15,2013-05-14 03:43:00,
2013-05-13 23:48:00,43.4,28.3,30.12,NNE,16,4.0,7.0,55,0.00,,,0.00,Wunderground v.1.15,2013-05-14 03:48:00,
2013-05-13 23:54:00,43.4,28.3,30.12,NNE,14,3.0,4.0,55,0.00,,,0.00,Wunderground v.1.15,2013-05-14 03:54:00,